period_start,C,m1,H,J0,J1,J2,J3,J4,J5,JA,JB,JC,JD,JJ,JK,JN,#
2016-12-09 00:01:32,0.11,0.27,0.00,19.58,24.20,28.09,14.66,49.58,1008.82,2041.00,3431.62,3088.35,3499.57,599.80,598.18,2.39,0000 0000 0000 0000 000000
2016-12-09 00:06:33,0.18,0.28,0.00,19.58,24.21,28.04,14.72,49.48,1008.83,2041.00,3427.61,3085.79,3496.70,600.07,598.48,2.44,0000 0000 0000 0000 000000
2016-12-09 00:11:35,0.11,0.28,0.00,19.58,24.22,28.06,14.75,49.46,1008.81,2041.00,3424.93,3083.87,3494.46,600.42,598.78,2.49,0000 0000 0000 0000 000000
2016-12-09 00:16:36,0.11,0.29,0.00,19.60,24.22,28.07,14.69,49.45,1008.80,2041.00,3422.51,3082.06,3492.39,600.01,598.34,2.54,0000 0000 0000 0000 000000
2016-12-09 00:21:37,0.11,0.29,0.00,19.58,24.22,28.08,14.62,49.33,1008.81,2041.00,3420.03,3080.21,3490.26,600.09,598.48,2.59,0000 0000 0000 0000 000000
2016-12-09 00:26:39,0.11,0.30,0.00,19.56,24.22,28.11,14.69,49.42,1008.80,2041.00,3417.73,3078.48,3488.25,599.84,598.17,2.64,0000 0000 0000 0000 000000
2016-12-09 00:31:40,0.11,0.30,0.00,19.57,24.22,28.10,14.59,49.32,1008.80,2041.00,3415.31,3076.68,3486.17,599.83,598.21,2.69,0000 0000 0000 0000 000000
2016-12-09 00:36:41,0.12,0.31,0.00,19.57,24.22,28.09,14.72,49.36,1008.80,2041.00,3412.96,3074.85,3484.08,600.18,598.54,2.74,0000 0000 0000 0000 000000
2016-12-09 00:41:43,0.11,0.32,0.00,19.58,24.23,28.11,14.64,49.27,1008.80,2041.00,3410.52,3073.06,3481.99,599.93,598.27,2.79,0000 0000 0000 0000 000000
2016-12-09 00:46:44,0.10,0.32,0.00,19.58,24.23,28.06,14.66,49.28,1008.79,2041.00,3408.19,3071.41,3480.03,600.17,598.56,2.84,0000 0000 0000 0000 000000
2016-12-09 00:51:45,0.11,0.33,0.00,19.60,24.24,28.06,14.70,49.33,1008.53,2041.00,3405.84,3069.75,3478.07,600.01,598.16,2.89,0000 0000 0000 0000 000000
2016-12-09 00:56:47,0.11,0.33,0.00,19.57,24.24,28.06,14.73,49.34,1008.33,2041.00,3403.47,3067.98,3476.07,600.08,598.16,2.94,0000 0000 0000 0000 000000
2016-12-09 01:01:48,0.11,0.34,0.00,19.55,24.25,28.06,14.68,49.41,1008.32,2041.00,3401.14,3066.22,3474.08,600.04,598.18,2.99,0000 0000 0000 0000 000000
2016-12-09 01:06:50,0.11,0.34,0.00,19.57,24.25,28.12,14.68,49.43,1008.27,2041.00,3398.69,3064.43,3472.00,599.93,597.95,3.04,0000 0000 0000 0000 000000
2016-12-09 01:11:51,0.11,0.35,0.00,19.57,24.24,28.01,14.64,49.37,1008.10,2040.99,3396.34,3062.67,3469.97,599.84,597.82,3.09,0000 0000 0000 0000 000000
2016-12-09 01:16:53,0.11,0.36,0.00,19.56,24.25,28.00,14.65,49.38,1007.85,2040.99,3394.02,3060.89,3468.00,600.07,597.96,3.14,0000 0000 0000 0000 000000
2016-12-09 01:21:54,0.10,0.36,0.00,19.54,24.25,28.01,14.63,49.58,1007.83,2040.99,3391.83,3059.26,3466.05,599.81,597.65,3.19,0000 0000 0000 0000 000000
2016-12-09 01:26:55,0.11,0.37,0.00,19.54,24.24,27.98,14.65,49.52,1007.82,2040.99,3389.58,3057.42,3463.97,599.82,597.70,3.24,0000 0000 0000 0000 000000
2016-12-09 01:31:57,0.11,0.37,0.00,19.54,24.24,27.98,14.71,49.47,1007.82,2040.99,3387.20,3055.63,3461.82,600.14,598.01,3.29,0000 0000 0000 0000 000000
2016-12-09 01:36:58,0.11,0.38,0.00,19.50,24.23,27.97,14.63,49.49,1007.82,2040.99,3384.90,3053.84,3459.83,599.97,597.85,3.34,0000 0000 0000 0000 000000
2016-12-09 01:41:59,0.11,0.39,0.00,19.49,24.23,27.98,14.63,49.47,1007.83,2040.99,3382.47,3051.94,3457.70,599.89,597.89,3.39,0000 0000 0000 0000 000000
2016-12-09 01:47:00,0.10,0.39,0.00,19.51,24.22,28.00,14.69,49.54,1007.83,2040.99,3380.24,3050.33,3455.81,600.12,598.01,3.44,0000 0000 0000 0000 000000
2016-12-09 01:52:02,0.11,0.40,0.00,19.51,24.22,27.99,14.68,49.50,1007.83,2040.99,3378.00,3048.61,3453.92,600.08,598.02,3.50,0000 0000 0000 0000 000000
2016-12-09 01:57:03,0.11,0.40,0.00,19.50,24.22,28.07,14.62,49.50,1007.83,2040.99,3375.68,3046.84,3451.89,599.78,597.66,3.55,0000 0000 0000 0000 000000
2016-12-09 02:02:04,0.12,0.41,0.00,19.49,24.22,27.99,14.72,49.60,1007.83,2040.99,3373.27,3044.95,3449.71,600.24,598.26,3.60,0000 0000 0000 0000 000000
2016-12-09 02:07:05,0.13,0.42,0.00,19.49,24.21,27.93,14.74,49.65,1007.83,2040.99,3370.78,3042.89,3447.38,600.26,598.20,3.65,0000 0000 0000 0000 000000
2016-12-09 02:12:06,0.13,0.42,0.00,19.50,24.20,27.97,14.64,49.58,1007.83,2040.99,3368.17,3040.93,3445.08,599.86,597.83,3.70,0000 0000 0000 0000 000000
2016-12-09 02:17:08,0.12,0.43,0.00,19.47,24.20,27.93,14.72,49.49,1007.83,2040.99,3365.77,3038.98,3442.93,600.26,598.29,3.75,0000 0000 0000 0000 000000
2016-12-09 02:22:09,0.12,0.44,0.00,19.46,24.20,27.94,14.68,49.58,1007.82,2040.99,3363.22,3036.93,3440.69,600.08,598.24,3.80,0000 0000 0000 0000 000000
2016-12-09 02:27:10,0.13,0.44,0.00,19.43,24.18,27.97,14.69,49.58,1007.82,2040.99,3360.68,3034.76,3438.37,599.78,597.84,3.85,0000 0000 0000 0000 000000
2016-12-09 02:32:12,0.12,0.45,0.00,19.40,24.17,27.97,14.68,49.67,1007.82,2041.00,3358.24,3032.73,3436.25,599.79,597.94,3.90,0000 0000 0000 0000 000000
2016-12-09 02:37:13,0.12,0.45,0.00,19.36,24.16,27.93,14.69,49.61,1007.81,2041.01,3355.78,3030.88,3434.15,600.02,598.21,3.95,0000 0000 0000 0000 000000
2016-12-09 02:42:15,0.12,0.46,0.00,19.33,24.15,27.89,14.69,49.58,1007.83,2041.01,3353.34,3029.04,3432.03,600.08,598.47,4.00,0000 0000 0000 0000 000000
2016-12-09 02:47:16,0.13,0.47,0.00,19.33,24.14,27.85,14.72,49.62,1007.83,2041.01,3350.75,3027.07,3429.79,600.45,598.76,4.05,0000 0000 0000 0000 000000
2016-12-09 02:52:17,0.13,0.47,0.00,19.30,24.12,27.80,14.66,49.67,1007.83,2041.01,3347.87,3025.04,3427.49,600.00,598.33,4.10,0000 0000 0000 0000 000000
2016-12-09 02:57:19,0.11,0.48,0.00,19.27,24.11,27.81,14.71,49.63,1007.85,2041.02,3345.37,3023.19,3425.30,600.11,598.48,4.15,0000 0000 0000 0000 000000
2016-12-09 03:02:20,0.12,0.49,0.00,19.24,24.09,27.74,14.66,49.67,1007.85,2041.04,3342.95,3021.37,3423.20,600.28,598.73,4.20,0000 0000 0000 0000 000000
2016-12-09 03:07:21,0.13,0.49,0.00,19.20,24.07,27.72,14.72,49.62,1007.86,2041.13,3340.43,3019.45,3420.99,599.90,598.49,4.25,0000 0000 0000 0000 000000
2016-12-09 03:12:22,0.15,0.50,0.00,19.16,24.06,27.70,14.64,49.67,1007.84,2041.22,3337.76,3017.28,3418.57,599.99,598.64,4.30,0000 0000 0000 0000 000000
2016-12-09 03:17:23,0.16,0.51,0.00,19.13,24.04,27.61,14.70,49.63,1007.84,2041.43,3335.11,3015.16,3416.16,600.06,598.81,4.35,0000 0000 0000 0000 000000
2016-12-09 03:22:24,0.14,0.52,0.00,19.12,24.02,27.63,14.74,49.59,1007.85,2041.77,3332.64,3013.37,3414.01,600.02,598.82,4.40,0000 0000 0000 0000 000000
2016-12-09 03:27:26,0.15,0.52,0.00,19.08,24.00,27.54,14.73,49.73,1007.84,2041.93,3330.12,3011.37,3411.83,600.00,598.81,4.45,0000 0000 0000 0000 000000
2016-12-09 03:32:27,0.14,0.53,0.00,19.05,23.97,27.54,14.69,49.60,1007.98,2041.96,3327.49,3009.15,3409.37,599.82,598.83,4.50,0000 0000 0000 0000 000000
2016-12-09 03:37:28,0.13,0.54,0.00,18.99,23.95,27.52,14.59,49.61,1008.07,2041.98,3324.93,3007.06,3407.11,599.62,598.81,4.55,0000 0000 0000 0000 000000
2016-12-09 03:42:29,0.14,0.54,0.00,18.94,23.92,27.47,14.83,49.86,1007.98,2041.99,3322.23,3005.00,3404.66,600.45,599.62,4.60,0000 0000 0000 0000 000000
2016-12-09 03:47:30,0.13,0.55,0.00,18.93,23.90,27.46,14.70,49.65,1007.99,2041.99,3319.52,3002.92,3402.28,600.16,599.39,4.65,0000 0000 0000 0000 000000
2016-12-09 03:52:32,0.13,0.56,0.00,18.92,23.88,27.45,14.71,49.62,1008.18,2041.99,3316.92,3000.88,3399.99,599.87,599.23,4.70,0000 0000 0000 0000 000000
2016-12-09 03:57:33,0.12,0.56,0.00,18.88,23.86,27.38,14.72,49.73,1008.28,2042.00,3314.37,2998.91,3397.76,599.86,599.30,4.75,0000 0000 0000 0000 000000
2016-12-09 04:02:34,0.12,0.57,0.00,18.87,23.83,27.41,14.70,49.67,1008.30,2042.03,3311.94,2997.11,3395.71,599.84,599.36,4.80,0000 0000 0000 0000 000000
2016-12-09 04:07:36,0.20,0.58,0.00,18.84,23.81,27.35,14.70,49.78,1008.29,2042.17,3308.17,2994.71,3392.96,599.91,599.48,4.85,0000 0000 0000 0000 000000
2016-12-09 04:12:37,0.17,0.59,0.00,18.82,23.78,27.36,14.76,49.79,1008.29,2042.49,3305.06,2992.39,3390.48,600.05,599.66,4.90,0000 0000 0000 0000 000000
2016-12-09 04:17:38,0.16,0.60,0.00,18.81,23.76,27.31,14.73,49.78,1008.32,2042.80,3302.39,2990.33,3388.18,599.93,599.64,4.95,0000 0000 0000 0000 000000
2016-12-09 04:22:40,0.12,0.60,0.00,18.77,23.73,27.31,14.74,49.70,1008.32,2042.97,3299.90,2988.44,3386.09,600.14,599.81,5.00,0000 0000 0000 0000 000000
2016-12-09 04:27:41,0.12,0.61,0.00,18.74,23.71,27.25,14.74,49.83,1008.32,2042.98,3297.37,2986.54,3383.95,600.16,600.01,5.05,0000 0000 0000 0000 000000
2016-12-09 04:32:42,0.13,0.62,0.00,18.70,23.68,27.22,14.71,49.75,1008.35,2042.99,3294.78,2984.57,3381.74,600.07,599.97,5.10,0000 0000 0000 0000 000000
2016-12-09 04:37:43,0.12,0.62,0.00,18.68,23.66,27.21,14.74,49.82,1008.35,2042.99,3292.20,2982.68,3379.55,600.06,599.94,5.15,0000 0000 0000 0000 000000
2016-12-09 04:42:45,0.12,0.63,0.00,18.65,23.63,27.16,14.76,49.69,1008.40,2043.00,3289.69,2980.82,3377.45,600.43,600.37,5.20,0000 0000 0000 0000 000000
2016-12-09 04:47:46,0.11,0.64,0.00,18.60,23.61,27.12,14.73,49.71,1008.66,2043.03,3287.34,2979.02,3375.40,599.85,600.21,5.25,0000 0000 0000 0000 000000
2016-12-09 04:52:47,0.12,0.64,0.00,18.58,23.58,27.15,14.77,49.55,1008.79,2043.04,3284.91,2977.26,3373.38,599.95,600.33,5.30,0000 0000 0000 0000 000000
2016-12-09 04:57:48,0.14,0.65,0.00,18.54,23.56,27.09,14.72,49.60,1008.76,2043.24,3282.57,2975.52,3371.43,600.00,600.44,5.35,0000 0000 0000 0000 000000
2016-12-09 05:02:50,0.15,0.66,0.00,18.54,23.53,27.07,14.72,49.63,1008.79,2043.63,3280.28,2973.72,3369.54,600.07,600.65,5.40,0000 0000 0000 0000 000000
2016-12-09 05:07:51,0.13,0.67,0.00,18.53,23.51,27.08,14.77,49.77,1008.81,2043.95,3278.02,2972.14,3367.66,599.97,600.49,5.45,0000 0000 0000 0000 000000
2016-12-09 05:12:53,0.11,0.67,0.00,18.51,23.49,27.03,14.78,49.75,1008.83,2043.98,3275.68,2970.42,3365.68,600.16,600.79,5.50,0000 0000 0000 0000 000000
2016-12-09 05:17:54,0.11,0.68,0.00,18.48,23.46,27.01,14.74,49.72,1009.00,2043.99,3273.42,2968.76,3363.76,600.40,601.13,5.55,0000 0000 0000 0000 000000
2016-12-09 05:22:55,0.11,0.68,0.00,18.48,23.44,27.02,14.76,49.75,1009.15,2043.99,3271.17,2967.07,3361.83,600.38,601.22,5.60,0000 0000 0000 0000 000000
2016-12-09 05:27:57,0.11,0.69,0.00,18.46,23.42,27.01,14.75,49.77,1009.28,2043.99,3268.89,2965.41,3359.93,599.95,600.90,5.65,0000 0000 0000 0000 000000
2016-12-09 05:32:58,0.11,0.69,0.00,18.45,23.40,27.00,14.78,49.80,1009.30,2044.00,3266.66,2963.77,3358.03,600.10,601.05,5.70,0000 0000 0000 0000 000000
2016-12-09 05:37:59,0.11,0.70,0.00,18.47,23.37,26.97,14.72,49.73,1009.29,2044.03,3264.49,2962.20,3356.26,599.91,600.88,5.75,0000 0000 0000 0000 000000
2016-12-09 05:43:00,0.11,0.71,0.00,18.44,23.36,26.85,14.69,49.74,1009.32,2044.05,3262.36,2960.58,3354.35,599.91,600.99,5.80,0000 0000 0000 0000 000000
2016-12-09 05:48:01,0.12,0.71,0.00,18.43,23.34,26.94,14.76,49.72,1009.40,2044.13,3260.27,2959.04,3352.58,600.00,601.09,5.86,0000 0000 0000 0000 000000
2016-12-09 05:53:02,0.12,0.72,0.00,18.41,23.32,26.91,14.78,49.85,1009.30,2044.41,3258.12,2957.53,3350.75,600.22,601.25,5.91,0000 0000 0000 0000 000000
2016-12-09 05:58:04,0.14,0.72,0.00,18.41,23.30,26.85,14.75,49.82,1009.36,2044.71,3256.03,2955.85,3348.94,599.96,601.02,5.96,0000 0000 0000 0000 000000
2016-12-09 06:03:05,0.11,0.73,0.00,18.39,23.28,26.83,14.82,49.74,1009.38,2044.94,3253.94,2954.40,3347.22,600.03,601.18,6.01,0000 0000 0000 0000 000000
2016-12-09 06:08:06,0.10,0.74,0.00,18.37,23.27,26.85,14.76,49.63,1009.70,2044.97,3251.90,2952.85,3345.51,600.07,601.43,6.06,0000 0000 0000 0000 000000
2016-12-09 06:13:08,0.10,0.74,0.00,18.36,23.25,26.86,14.82,49.70,1009.77,2044.95,3249.81,2951.38,3343.72,600.23,601.63,6.11,0000 0000 0000 0000 000000
2016-12-09 06:18:09,0.10,0.75,0.00,18.35,23.23,26.83,14.68,49.88,1009.78,2044.98,3247.88,2949.87,3342.05,600.20,601.73,6.16,0000 0000 0000 0000 000000
2016-12-09 06:23:11,0.10,0.75,0.00,18.35,23.22,26.81,14.75,49.93,1009.78,2044.99,3245.85,2948.49,3340.40,599.93,601.37,6.21,0000 0000 0000 0000 000000
2016-12-09 06:28:12,0.10,0.76,0.00,18.36,23.20,26.79,14.81,50.03,1009.78,2044.99,3243.84,2946.98,3338.69,600.17,601.60,6.26,0000 0000 0000 0000 000000
2016-12-09 06:33:13,0.10,0.76,0.00,18.36,23.18,26.79,14.74,50.04,1009.78,2044.99,3241.83,2945.54,3337.00,600.04,601.42,6.31,0000 0000 0000 0000 000000
2016-12-09 06:38:15,0.09,0.77,0.00,18.35,23.17,26.77,14.77,49.94,1009.78,2044.99,3239.82,2944.06,3335.36,599.79,601.36,6.36,0000 0000 0000 0000 000000
2016-12-09 06:43:16,0.11,0.77,0.00,18.35,23.15,26.78,14.74,50.02,1009.78,2045.00,3237.81,2942.67,3333.65,599.77,601.25,6.41,0000 0000 0000 0000 000000
2016-12-09 06:48:17,0.09,0.78,0.00,18.33,23.13,26.78,14.67,50.02,1009.78,2045.00,3235.82,2941.15,3331.96,599.80,601.31,6.46,0000 0000 0000 0000 000000
2016-12-09 06:53:18,0.10,0.78,0.00,18.32,23.12,26.74,14.83,50.08,1009.81,2045.02,3233.89,2939.73,3330.36,600.27,601.87,6.51,0000 0000 0000 0000 000000
2016-12-09 06:58:19,0.10,0.79,0.00,18.30,23.10,26.72,14.78,50.17,1009.90,2045.06,3231.96,2938.36,3328.68,599.88,601.51,6.56,0000 0000 0000 0000 000000
2016-12-09 07:03:21,0.10,0.79,0.00,18.27,23.09,26.72,14.78,50.09,1010.13,2045.06,3229.94,2936.86,3327.10,599.85,601.65,6.61,0000 0000 0000 0000 000000
2016-12-09 07:08:22,0.10,0.80,0.00,18.29,23.07,26.69,14.77,50.16,1010.04,2045.25,3228.14,2935.58,3325.60,599.97,601.75,6.66,0000 0000 0000 0000 000000
2016-12-09 07:13:23,0.09,0.80,0.00,18.29,23.05,26.68,14.81,50.08,1010.22,2045.39,3226.31,2934.26,3324.09,600.22,602.07,6.71,0000 0000 0000 0000 000000
2016-12-09 07:18:24,0.10,0.81,0.00,18.27,23.04,26.69,14.79,50.23,1010.27,2045.38,3224.52,2932.89,3322.54,599.93,601.80,6.76,0000 0000 0000 0000 000000
2016-12-09 07:23:25,0.12,0.81,0.00,18.26,23.02,26.67,14.87,50.13,1010.27,2045.77,3222.79,2931.66,3321.11,600.31,602.25,6.81,0000 0000 0000 0000 000000
2016-12-09 07:28:27,0.09,0.82,0.00,18.24,23.02,26.64,14.78,50.13,1010.27,2045.96,3221.11,2930.49,3319.73,600.02,601.99,6.86,0000 0000 0000 0000 000000
2016-12-09 07:33:28,0.08,0.82,0.00,18.25,22.99,26.64,14.69,50.01,1010.30,2045.96,3219.37,2929.21,3318.39,599.80,601.72,6.91,0000 0000 0000 0000 000000
2016-12-09 07:38:29,0.08,0.83,0.00,18.23,22.99,26.65,14.80,50.03,1010.51,2045.94,3217.68,2927.96,3316.94,599.93,602.02,6.96,0000 0000 0000 0000 000000
2016-12-09 07:43:30,0.09,0.83,0.00,18.23,22.97,26.63,14.76,49.99,1010.75,2045.98,3216.09,2926.75,3315.58,600.02,602.31,7.01,0000 0000 0000 0000 000000
2016-12-09 07:48:31,0.08,0.84,0.00,18.24,22.97,26.60,14.72,49.95,1010.76,2045.99,3214.44,2925.58,3314.21,599.83,602.12,7.06,0000 0000 0000 0000 000000
2016-12-09 07:53:32,0.08,0.84,0.00,18.26,22.95,26.63,14.72,49.87,1010.80,2045.99,3212.72,2924.34,3312.80,599.80,602.18,7.11,0000 0000 0000 0000 000000
2016-12-09 07:58:34,0.07,0.85,0.00,18.24,22.94,26.56,14.75,49.93,1011.00,2045.99,3211.10,2923.02,3311.46,600.04,602.53,7.16,0000 0000 0000 0000 000000
2016-12-09 08:03:35,0.08,0.85,0.00,18.21,22.92,26.59,14.76,49.98,1011.22,2045.99,3209.47,2921.85,3309.99,599.85,602.48,7.21,0000 0000 0000 0000 000000
2016-12-09 08:08:36,0.09,0.85,0.00,18.20,22.92,26.58,14.82,49.91,1011.25,2045.99,3207.84,2920.64,3308.66,600.42,603.02,7.26,0000 0000 0000 0000 000000
2016-12-09 08:13:38,0.07,0.86,0.00,18.22,22.91,26.65,14.82,49.82,1011.48,2045.99,3206.25,2919.48,3307.30,599.95,602.72,7.31,0000 0000 0000 0000 000000
2016-12-09 08:18:39,0.08,0.86,0.00,18.22,22.89,26.60,14.79,49.74,1011.73,2046.01,3204.64,2918.32,3305.91,600.00,603.05,7.36,0000 0000 0000 0000 000000
2016-12-09 08:23:41,0.08,0.87,0.00,18.22,22.89,26.63,14.79,49.90,1011.73,2046.01,3202.98,2917.07,3304.58,599.99,602.89,7.41,0000 0000 0000 0000 000000
2016-12-09 08:28:42,0.09,0.87,0.00,18.24,22.89,26.68,14.78,50.05,1011.71,2046.00,3201.35,2915.81,3303.03,600.02,602.87,7.46,0000 0000 0000 0000 000000
2016-12-09 08:33:43,0.09,0.88,0.00,18.24,22.87,26.64,14.78,50.38,1011.71,2046.01,3199.64,2914.54,3301.53,600.04,602.98,7.51,0000 0000 0000 0000 000000
2016-12-09 08:38:45,0.08,0.88,0.00,18.21,22.87,26.65,14.84,50.44,1011.53,2046.02,3198.08,2913.26,3299.94,600.26,603.06,7.56,0000 0000 0000 0000 000000
2016-12-09 08:43:46,0.08,0.89,0.00,18.15,22.87,26.71,14.74,50.38,1011.56,2046.02,3196.41,2911.93,3298.48,599.84,602.78,7.61,0000 0000 0000 0000 000000
2016-12-09 08:48:47,0.09,0.89,0.00,18.14,22.87,26.69,14.87,50.27,1011.69,2046.02,3194.67,2910.61,3297.01,600.26,603.30,7.66,0000 0000 0000 0000 000000
2016-12-09 08:53:48,0.09,0.89,0.00,18.14,22.85,26.68,14.89,50.26,1011.74,2046.01,3192.90,2909.35,3295.59,600.16,603.21,7.71,0000 0000 0000 0000 000000
2016-12-09 08:58:49,0.07,0.90,0.00,18.12,22.84,26.60,14.79,50.16,1011.95,2046.01,3191.26,2908.10,3294.11,599.97,602.93,7.76,0000 0000 0000 0000 000000
2016-12-09 09:03:50,0.09,0.90,0.00,18.10,22.83,26.58,14.80,50.10,1012.21,2046.02,3189.65,2906.82,3292.67,599.95,603.36,7.81,0000 0000 0000 0000 000000
2016-12-09 09:08:52,0.08,0.91,0.00,18.11,22.82,26.50,14.84,49.97,1012.22,2046.03,3187.95,2905.60,3291.26,599.99,603.43,7.86,0000 0000 0000 0000 000000
2016-12-09 09:13:53,0.08,0.91,0.00,18.10,22.81,26.51,14.81,50.02,1012.27,2046.04,3186.41,2904.45,3289.79,600.14,603.63,7.91,0000 0000 0000 0000 000000
2016-12-09 09:18:54,0.08,0.92,0.00,18.11,22.79,26.45,14.85,49.86,1012.69,2046.06,3184.73,2903.28,3288.49,600.29,603.94,7.96,0000 0000 0000 0000 000000
2016-12-09 09:23:55,0.09,0.92,0.00,18.09,22.78,26.40,14.83,50.08,1012.70,2046.06,3182.98,2901.94,3286.98,600.29,604.04,8.01,0000 0000 0000 0000 000000
2016-12-09 09:28:57,0.09,0.93,0.00,18.07,22.77,26.37,14.80,50.27,1012.47,2046.10,3181.34,2900.65,3285.50,599.74,603.34,8.06,0000 0000 0000 0000 000000
2016-12-09 09:33:58,0.10,0.93,0.00,18.03,22.75,26.42,14.82,50.33,1012.26,2046.28,3179.61,2899.45,3284.07,599.83,603.38,8.11,0000 0000 0000 0000 000000
2016-12-09 09:38:59,0.11,0.94,0.00,18.02,22.74,26.33,14.84,50.49,1012.23,2046.52,3177.82,2898.00,3282.45,599.82,603.40,8.16,0000 0000 0000 0000 000000
2016-12-09 09:44:01,0.11,0.94,0.00,17.99,22.72,26.35,14.81,50.50,1012.24,2046.52,3175.75,2896.44,3280.52,600.08,603.75,8.22,0000 0000 0000 0000 000000
2016-12-09 09:49:02,0.13,0.95,0.00,17.97,22.71,26.39,14.85,50.52,1012.64,2046.82,3173.94,2894.84,3278.72,600.15,604.11,8.27,0000 0000 0000 0000 000000
2016-12-09 09:54:03,0.10,0.95,0.00,17.95,22.69,26.35,14.84,50.09,1013.06,2046.86,3172.14,2893.49,3277.14,600.05,604.35,8.32,0000 0000 0000 0000 000000
2016-12-09 09:59:05,0.09,0.96,0.00,17.95,22.67,26.32,14.77,49.94,1013.10,2046.94,3170.35,2892.20,3275.77,599.77,604.13,8.37,0000 0000 0000 0000 000000
2016-12-09 10:04:06,0.09,0.96,0.00,17.94,22.64,26.28,14.85,50.02,1012.78,2046.98,3168.60,2890.86,3274.36,600.12,604.27,8.42,0000 0000 0000 0000 000000
2016-12-09 10:09:07,0.15,0.97,0.00,17.92,22.63,26.21,14.82,50.23,1012.72,2046.98,3166.36,2888.80,3271.98,599.84,604.01,8.47,0000 0000 0000 0000 000000
2016-12-09 10:14:08,0.08,0.98,0.00,17.86,22.61,26.20,14.84,50.27,1012.73,2046.98,3164.48,2887.36,3270.38,600.23,604.60,8.52,0000 0000 0000 0000 000000
2016-12-09 10:19:09,0.09,0.98,0.00,17.83,22.59,26.22,14.84,50.29,1012.88,2046.99,3162.73,2885.98,3268.76,600.08,604.48,8.57,0000 0000 0000 0000 000000
2016-12-09 10:24:11,0.09,0.99,0.00,17.81,22.56,26.15,14.85,50.23,1013.20,2046.99,3161.01,2884.69,3267.33,600.15,604.70,8.62,0000 0000 0000 0000 000000
2016-12-09 10:29:13,0.08,0.99,0.00,17.80,22.54,26.10,14.86,50.03,1013.20,2046.99,3159.39,2883.47,3265.79,600.09,604.74,8.67,0000 0000 0000 0000 000000
2016-12-09 10:34:14,0.08,0.99,0.00,17.78,22.52,26.08,14.82,49.92,1013.21,2046.99,3157.68,2882.32,3264.53,600.00,604.74,8.72,0000 0000 0000 0000 000000
2016-12-09 10:39:15,0.09,1.00,0.00,17.77,22.49,26.08,14.89,49.67,1013.23,2046.99,3155.96,2880.97,3263.21,600.12,604.86,8.77,0000 0000 0000 0000 000000
2016-12-09 10:44:16,0.09,1.00,0.00,17.76,22.47,26.02,14.81,49.67,1013.25,2046.99,3154.12,2879.61,3261.76,599.87,604.64,8.82,0000 0000 0000 0000 000000
2016-12-09 10:49:17,0.07,1.01,0.00,17.74,22.44,25.97,14.88,49.82,1013.25,2046.99,3152.55,2878.61,3260.48,600.18,604.96,8.87,0000 0000 0000 0000 000000
2016-12-09 10:54:19,0.09,1.01,0.00,17.73,22.42,26.03,14.82,49.77,1013.33,2047.00,3150.82,2877.46,3258.97,600.01,604.89,8.92,0000 0000 0000 0000 000000
2016-12-09 10:59:20,0.08,1.02,0.00,17.75,22.40,26.01,14.83,49.91,1013.54,2047.00,3149.15,2876.08,3257.52,599.71,604.66,8.97,0000 0000 0000 0000 000000
2016-12-09 11:04:21,0.09,1.02,0.00,17.74,22.38,25.97,14.86,49.98,1013.67,2047.01,3147.53,2874.84,3256.05,600.18,605.14,9.02,0000 0000 0000 0000 000000
2016-12-09 11:09:22,0.09,1.03,0.00,17.74,22.37,25.97,14.87,50.06,1013.69,2047.05,3145.85,2873.70,3254.70,599.97,605.05,9.07,0000 0000 0000 0000 000000
2016-12-09 11:14:23,0.11,1.03,0.00,17.73,22.34,25.95,14.85,49.94,1013.70,2047.28,3144.38,2872.55,3253.37,600.00,605.18,9.12,0000 0000 0000 0000 000000
2016-12-09 11:19:25,0.07,1.04,0.00,17.70,22.33,25.92,14.93,49.98,1013.87,2047.26,3142.65,2871.30,3251.88,600.18,605.50,9.17,0000 0000 0000 0000 000000
2016-12-09 11:24:26,0.11,1.04,0.00,17.70,22.31,25.92,14.87,49.83,1014.16,2047.58,3140.98,2870.05,3250.54,599.78,605.23,9.22,0000 0000 0000 0000 000000
2016-12-09 11:29:27,0.10,1.05,0.00,17.70,22.29,25.85,14.89,49.97,1014.11,2047.68,3139.34,2868.83,3249.07,600.37,605.77,9.27,0000 0000 0000 0000 000000
2016-12-09 11:34:29,0.09,1.05,0.00,17.67,22.28,25.93,14.88,50.17,1013.98,2047.86,3137.71,2867.59,3247.67,600.17,605.52,9.32,0000 0000 0000 0000 000000
2016-12-09 11:39:30,0.09,1.06,0.00,17.69,22.26,25.90,14.86,49.92,1014.22,2047.95,3136.09,2866.43,3246.30,600.07,605.50,9.37,0000 0000 0000 0000 000000
2016-12-09 11:44:31,0.08,1.06,0.00,17.69,22.24,25.89,14.89,49.94,1014.52,2047.97,3134.60,2865.24,3244.90,600.04,605.78,9.42,0000 0000 0000 0000 000000
2016-12-09 11:49:33,0.09,1.07,0.00,17.70,22.23,25.91,14.85,49.88,1014.64,2047.97,3132.88,2863.99,3243.59,600.44,606.15,9.47,0000 0000 0000 0000 000000
2016-12-09 11:54:34,0.09,1.07,0.00,17.68,22.22,25.91,14.85,49.81,1014.66,2047.98,3131.29,2862.71,3242.15,600.01,605.79,9.52,0000 0000 0000 0000 000000
2016-12-09 11:59:35,0.08,1.07,0.00,17.67,22.21,25.85,14.88,49.92,1014.66,2047.99,3129.62,2861.54,3240.78,600.12,605.92,9.57,0000 0000 0000 0000 000000
2016-12-09 12:04:36,0.07,1.08,0.00,17.68,22.19,25.85,14.79,49.75,1014.97,2047.99,3128.03,2860.33,3239.44,600.00,605.95,9.62,0000 0000 0000 0000 000000
2016-12-09 12:09:38,0.08,1.08,0.00,17.71,22.19,25.89,14.84,49.85,1015.12,2047.99,3126.43,2859.06,3237.98,599.78,605.93,9.67,0000 0000 0000 0000 000000
2016-12-09 12:14:39,0.09,1.09,0.00,17.73,22.17,25.89,14.89,49.80,1015.14,2047.99,3124.79,2857.84,3236.61,600.09,606.06,9.72,0000 0000 0000 0000 000000
2016-12-09 12:19:40,0.09,1.09,0.00,17.69,22.17,25.91,14.91,50.08,1015.01,2047.99,3123.14,2856.54,3235.07,600.21,606.12,9.77,0000 0000 0000 0000 000000
2016-12-09 12:24:41,0.09,1.10,0.00,17.66,22.17,25.93,14.87,50.32,1014.70,2048.00,3121.51,2855.35,3233.61,600.10,605.84,9.82,0000 0000 0000 0000 000000
2016-12-09 12:29:42,0.10,1.10,0.00,17.62,22.15,25.95,14.88,50.46,1014.71,2048.02,3119.70,2853.88,3231.99,599.99,605.88,9.87,0000 0000 0000 0000 000000
2016-12-09 12:34:44,0.11,1.11,0.00,17.61,22.14,25.91,14.94,50.51,1014.70,2048.01,3117.79,2852.32,3230.16,600.39,606.27,9.92,0000 0000 0000 0000 000000
2016-12-09 12:39:45,0.11,1.11,0.00,17.58,22.13,25.89,14.90,50.48,1014.91,2048.02,3115.85,2850.82,3228.52,599.99,606.17,9.97,0000 0000 0000 0000 000000
2016-12-09 12:44:47,0.10,1.12,0.00,17.56,22.12,25.83,14.85,50.52,1014.78,2048.03,3114.00,2849.43,3226.83,599.76,605.83,10.02,0000 0000 0000 0000 000000
2016-12-09 12:49:48,0.11,1.12,0.00,17.53,22.11,25.84,14.87,50.58,1014.70,2048.06,3112.18,2847.87,3225.09,599.99,606.07,10.07,0000 0000 0000 0000 000000
2016-12-09 12:54:49,0.12,1.13,0.00,17.49,22.09,25.83,14.85,50.22,1015.12,2048.10,3110.07,2846.07,3223.08,599.96,606.62,10.12,0000 0000 0000 0000 000000
2016-12-09 12:59:50,0.12,1.14,0.00,17.50,22.08,25.77,14.87,50.11,1015.14,2048.20,3108.18,2844.60,3221.40,599.83,606.25,10.17,0000 0000 0000 0000 000000